Wind_Speed
16 16 16 16 15 15 15 15 15 15 15 15 15 15 15 15 15 16 16 16 15 15 15 14 14 14 14 14 15 15 15 15 14 14 14 14 15 15 15 15 14 15 16
17 16 17 18 17 17 16 16 16 16 16 17 17 17 17 16 16 16 16 16 16 15 15 14 14 14 15 15 15 15 15 16 16 16 16 15 15 16 16 17 17 17 17
19 18 18 18 18 18 17 17 17 17 17 18 19 18 17 17 16 16 16 16 16 15 15 15 15 15 15 15 15 16 16 16 16 17 17 17 17 18 18 18 19 19 19
20 20 19 18 18 18 19 18 18 17 18 18 18 16 16 16 16 16 16 16 16 16 16 16 16 16 16 16 16 17 17 17 17 17 18 18 18 18 19 20 20 20 20
20 20 19 19 19 19 19 20 19 18 19 18 17 16 16 15 16 16 15 16 16 16 16 16 16 16 17 17 17 17 18 18 17 18 18 19 20 20 20 20 20 21 22
21 21 20 20 20 20 20 21 20 19 19 19 17 16 16 16 15 16 16 16 16 16 16 17 17 17 17 18 18 18 18 19 19 18 19 20 20 20 21 21 21 22 23
22 21 21 21 20 21 22 22 21 21 20 19 17 16 16 16 16 16 16 16 16 17 17 18 18 18 18 19 19 19 19 20 20 20 20 21 21 21 22 23 23 23 23
22 22 21 21 22 22 23 23 22 22 21 19 18 17 17 16 17 17 17 17 18 18 18 19 19 19 19 19 19 20 20 20 20 20 21 21 22 23 23 23 23 23 24
22 22 22 22 22 23 23 23 22 22 21 20 19 19 18 18 18 18 18 18 19 19 19 19 19 19 20 20 20 20 20 20 21 21 22 22 22 23 23 24 24 24 24
23 23 23 23 23 22 23 24 23 23 22 21 20 20 20 19 19 19 19 19 19 19 18 18 19 19 19 19 20 20 20 20 20 21 21 21 22 22 23 23 24 24 25
24 25 24 24 24 24 24 25 24 24 23 23 22 22 21 21 22 22 21 21 20 20 19 19 19 19 20 20 21 21 21 22 22 22 22 22 22 23 23 23 23 24 25
25 25 25 25 25 25 25 26 25 24 24 24 24 23 23 23 23 23 23 23 22 21 21 21 21 21 21 21 22 22 22 23 23 23 23 23 23 23 23 23 23 24 24
26 26 25 25 25 26 26 26 25 25 24 25 25 24 24 24 24 24 24 24 24 22 22 22 22 22 21 22 23 23 23 24 24 24 24 24 24 25 25 25 25 25 25
26 26 25 26 26 26 26 26 26 25 25 25 25 25 24 24 24 24 24 24 24 24 23 23 23 23 23 23 23 23 24 25 25 25 25 25 25 25 26 26 26 26 26
26 26 26 26 26 26 26 26 26 26 25 25 25 25 24 24 24 24 25 25 25 24 24 24 24 24 24 25 25 25 24 24 24 25 26 26 26 27 26 26 26 26 25
27 27 27 27 27 27 27 26 26 26 25 25 25 25 25 25 25 25 26 26 26 26 26 26 25 25 25 25 25 25 25 25 25 25 26 27 27 27 26 26 27 27 26
27 28 27 27 27 27 27 27 27 26 26 26 26 25 26 26 26 26 26 27 27 27 26 27 27 26 27 26 26 26 26 26 26 26 26 26 26 26 26 26 26 26 27
28 28 27 27 28 28 28 28 27 27 27 27 27 27 27 27 27 27 27 27 27 27 28 28 28 28 28 28 28 27 27 26 26 26 26 27 27 27 27 27 27 27 27
27 26 26 27 27 28 28 28 28 28 28 28 28 28 28 27 26 26 27 27 27 28 28 29 28 28 28 29 29 29 28 27 26 27 28 28 28 28 28 27 27 27 27
27 27 27 27 27 27 27 27 27 28 28 28 28 28 28 26 26 27 27 27 27 27 27 28 28 29 29 28 28 28 28 28 28 28 28 29 29 29 28 28 27 28 28
28 28 28 28 27 27 27 27 27 27 28 27 27 28 28 28 27 28 27 28 27 27 27 27 28 29 29 28 28 29 29 29 28 28 28 29 28 28 29 29 29 30 30
29 29 29 28 28 27 27 27 26 26 27 27 27 28 29 29 28 28 28 27 27 26 26 27 28 28 29 29 29 29 30 29 29 28 28 28 28 28 28 29 30 30 30
28 28 28 28 28 27 26 26 26 26 27 27 27 28 29 29 28 29 28 28 27 26 26 27 27 27 28 28 29 29 30 29 29 29 29 29 29 29 29 29 29 29 30
28 28 27 27 26 27 27 26 26 27 27 27 28 28 27 27 28 27 28 27 27 27 27 27 27 27 27 27 27 28 28 28 28 29 29 30 30 29 28 28 28 29 29
26 27 27 27 26 26 26 26 27 27 27 27 27 26 26 26 27 27 27 27 28 28 27 27 26 26 26 26 26 27 28 28 29 29 29 29 29 29 29 29 28 29 29
26 26 27 26 26 26 26 26 26 26 26 26 26 26 27 27 27 27 27 27 27 27 27 27 26 25 25 26 25 25 26 28 28 28 28 29 29 29 28 28 28 28 29
Wind_Direction
266 267 268 269 271 277 281 284 284 286 286 286 286 280 278 273 269 269 271 269 267 264 260 258 256 257 258 259 257 255 256 258 262 263 264 265 263 261 262 263 264 264 265
265 269 268 269 270 276 280 286 286 286 287 288 288 280 276 272 270 270 269 268 268 266 262 259 258 259 260 259 258 256 256 258 260 262 264 265 264 265 266 266 264 263 264
261 264 268 268 268 273 278 281 282 284 288 288 286 280 273 271 270 269 268 266 266 265 263 261 259 259 259 259 259 257 259 258 259 262 264 265 264 265 266 265 265 265 264
260 263 265 267 269 271 275 279 280 284 286 287 286 282 275 270 269 268 266 264 264 264 263 263 262 262 260 258 259 260 261 262 263 265 267 268 267 268 267 267 266 265 266
261 261 263 265 269 270 273 277 278 283 287 288 286 284 276 271 269 269 268 265 264 264 263 262 261 261 261 260 259 262 264 266 269 269 269 270 270 270 268 269 267 266 265
262 261 262 265 267 268 270 273 274 280 286 287 283 280 274 270 268 267 266 267 267 265 265 263 261 260 261 261 261 262 265 268 269 269 270 271 271 270 269 269 269 267 266
263 263 263 264 267 269 272 273 274 277 281 283 278 276 273 269 267 268 268 269 270 268 269 266 263 263 264 262 262 263 265 267 268 269 270 271 270 271 272 271 270 270 269
261 263 265 265 266 268 270 273 275 275 279 279 277 274 272 269 268 268 270 270 270 270 270 269 265 268 269 264 264 265 266 268 269 270 271 271 271 272 273 272 272 271 270
262 263 265 268 267 268 270 272 275 273 274 274 272 271 270 270 269 270 269 268 270 271 269 268 267 269 272 268 266 268 267 269 271 271 273 272 272 273 274 274 273 272 270
264 265 267 268 268 269 270 270 274 273 270 268 268 269 269 269 269 269 268 267 268 269 269 269 270 270 271 269 267 268 268 270 272 273 273 272 273 273 272 272 271 271 271
265 266 268 269 268 268 269 270 273 270 266 265 267 268 269 270 269 268 268 267 266 266 267 268 271 271 270 269 268 268 268 271 272 272 271 271 273 274 273 273 273 272 272
266 266 268 268 267 267 267 269 272 269 264 263 264 266 268 270 270 268 268 268 265 265 266 268 271 272 270 270 270 270 270 272 271 270 270 270 271 273 273 273 274 275 274
267 268 268 268 266 266 267 268 268 266 263 262 262 264 267 269 269 269 268 267 264 265 265 266 269 271 273 273 272 272 271 271 272 270 269 269 270 271 272 273 274 275 276
267 268 269 268 266 267 268 269 268 266 263 262 262 262 264 265 267 268 268 267 265 264 264 266 267 269 272 272 273 273 272 271 270 269 268 269 270 272 273 273 274 275 276
266 268 268 269 268 268 269 268 268 268 267 263 263 263 263 265 266 266 267 267 265 265 267 267 266 268 271 272 274 273 274 272 271 270 269 269 270 272 274 275 275 276 276
266 267 268 269 269 268 268 268 267 267 267 263 262 262 264 266 266 266 266 267 266 267 269 269 268 268 270 272 273 272 274 274 273 271 271 270 271 272 274 273 273 273 274
266 268 269 270 270 268 267 267 267 266 266 264 262 261 264 267 266 265 265 267 267 268 269 270 270 270 270 271 271 271 271 274 274 274 272 272 272 273 274 274 273 273 273
266 268 269 269 270 270 268 267 267 266 267 266 264 263 263 266 266 264 263 266 267 268 269 271 271 270 269 269 270 271 273 272 273 274 274 274 272 272 274 274 275 275 275
266 267 269 270 270 270 270 267 266 266 266 266 265 266 263 264 264 266 266 267 268 268 269 269 269 270 270 269 270 272 273 273 272 273 274 273 272 272 273 274 275 276 277
267 268 269 271 271 270 268 267 266 267 266 266 264 264 262 262 264 266 269 270 270 270 270 269 268 269 269 269 268 270 273 274 273 273 273 271 272 273 274 275 275 276 277
266 267 268 270 271 270 268 267 267 266 266 264 262 261 261 262 264 267 270 271 271 270 269 269 269 270 269 267 268 269 272 275 275 274 273 272 271 272 274 274 276 277 278
266 267 267 268 269 269 268 267 267 267 265 263 261 261 262 264 266 267 268 269 269 268 268 267 269 270 269 267 267 270 272 275 275 275 274 273 271 273 274 273 275 277 278
268 269 268 267 267 268 268 268 266 265 264 262 262 262 263 264 266 266 266 267 267 266 266 267 268 269 270 268 268 270 272 274 274 273 273 273 272 274 275 275 276 278 279
268 268 267 265 266 268 268 268 265 264 265 264 263 263 263 264 265 265 265 265 266 267 267 267 268 269 269 268 268 270 272 272 273 274 273 273 273 275 275 277 278 280 281
266 267 266 265 265 267 269 268 266 266 266 264 262 260 262 264 264 267 267 267 267 267 266 266 268 269 268 267 269 271 272 274 276 276 276 274 273 275 277 278 280 281 282
265 265 264 264 265 265 266 267 267 265 264 263 262 261 261 263 264 264 266 266 267 268 267 268 268 268 268 267 268 271 272 275 276 275 276 275 274 276 277 278 281 282 283
Height
5864 5864 5863 5863 5863 5862 5861 5860 5859 5858 5856 5855 5854 5853 5851 5850 5849 5849 5849 5849 5849 5849 5849 5849 5850 5850 5851 5851 5852 5852 5852 5853 5852 5852 5852 5852 5852 5852 5852 5852 5852 5852 5852
5860 5860 5860 5859 5859 5859 5858 5856 5855 5854 5853 5852 5850 5849 5847 5846 5845 5845 5844 5844 5845 5845 5845 5846 5846 5847 5847 5848 5848 5848 5849 5849 5849 5849 5849 5849 5849 5849 5848 5848 5848 5848 5848
5856 5856 5855 5855 5855 5854 5853 5852 5851 5850 5849 5847 5846 5844 5842 5841 5841 5841 5840 5840 5840 5841 5841 5842 5842 5843 5843 5844 5844 5845 5845 5845 5845 5845 5845 5845 5845 5845 5845 5844 5844 5844 5844
5851 5851 5851 5850 5850 5849 5849 5848 5847 5846 5845 5843 5841 5840 5838 5837 5837 5837 5836 5836 5836 5837 5838 5838 5838 5839 5839 5840 5840 5840 5841 5841 5841 5841 5840 5840 5840 5840 5840 5840 5839 5839 5839
5845 5845 5845 5845 5845 5845 5844 5843 5842 5841 5840 5839 5837 5836 5834 5834 5833 5832 5832 5832 5833 5833 5833 5833 5834 5834 5835 5835 5836 5836 5836 5836 5836 5836 5836 5835 5835 5834 5834 5835 5834 5834 5834
5840 5840 5840 5840 5840 5839 5839 5838 5838 5837 5835 5834 5833 5832 5831 5830 5830 5829 5829 5829 5828 5829 5829 5829 5829 5830 5830 5830 5831 5831 5831 5831 5831 5830 5830 5830 5830 5829 5829 5829 5828 5828 5828
5835 5835 5835 5835 5834 5834 5834 5833 5833 5832 5830 5829 5828 5828 5827 5826 5825 5825 5825 5825 5824 5825 5825 5825 5825 5825 5825 5825 5825 5826 5826 5826 5826 5825 5825 5825 5825 5824 5823 5823 5822 5822 5822
5829 5829 5829 5829 5829 5829 5829 5828 5827 5826 5825 5824 5824 5823 5822 5822 5821 5821 5821 5821 5820 5820 5820 5820 5820 5820 5820 5820 5820 5820 5820 5820 5820 5820 5819 5819 5818 5818 5817 5817 5816 5816 5816
5823 5823 5823 5823 5823 5823 5823 5823 5822 5821 5820 5819 5819 5819 5818 5817 5817 5816 5816 5816 5816 5816 5815 5815 5815 5815 5815 5815 5815 5815 5815 5815 5814 5814 5814 5813 5813 5812 5811 5810 5810 5809 5809
5817 5817 5817 5818 5818 5817 5817 5817 5816 5816 5815 5814 5814 5814 5813 5812 5812 5811 5811 5811 5811 5810 5810 5810 5810 5810 5809 5809 5809 5809 5809 5809 5808 5808 5808 5807 5807 5806 5805 5804 5803 5803 5802
5810 5810 5811 5811 5811 5811 5810 5810 5810 5809 5809 5808 5808 5808 5807 5807 5806 5806 5806 5805 5805 5805 5805 5805 5805 5804 5804 5804 5803 5803 5803 5803 5802 5802 5801 5801 5800 5799 5799 5798 5797 5796 5795
5803 5803 5803 5804 5804 5804 5804 5803 5803 5802 5802 5802 5801 5801 5801 5800 5800 5800 5799 5799 5798 5799 5799 5799 5799 5798 5798 5797 5797 5796 5796 5796 5795 5795 5795 5794 5794 5793 5792 5791 5790 5790 5788
5795 5796 5796 5796 5797 5797 5796 5796 5796 5795 5795 5795 5794 5794 5794 5794 5794 5793 5793 5792 5792 5792 5792 5792 5792 5792 5791 5791 5790 5790 5789 5789 5788 5788 5788 5787 5787 5786 5785 5784 5783 5783 5782
5788 5788 5789 5789 5789 5789 5789 5788 5788 5787 5787 5787 5787 5787 5787 5787 5787 5786 5786 5786 5785 5785 5785 5785 5785 5785 5785 5784 5784 5783 5782 5782 5781 5781 5780 5780 5779 5779 5778 5777 5776 5775 5774
5780 5781 5781 5781 5781 5781 5781 5781 5780 5780 5779 5779 5779 5780 5780 5780 5779 5779 5779 5778 5778 5778 5778 5778 5778 5778 5778 5777 5777 5776 5775 5774 5774 5773 5773 5772 5772 5771 5770 5770 5769 5768 5767
5773 5773 5773 5773 5773 5773 5773 5773 5772 5772 5772 5772 5772 5772 5772 5772 5772 5772 5771 5771 5771 5771 5771 5771 5771 5771 5771 5770 5769 5768 5767 5767 5766 5765 5765 5764 5764 5763 5762 5762 5761 5760 5759
5765 5765 5765 5765 5765 5765 5765 5765 5765 5764 5764 5764 5764 5764 5764 5764 5764 5764 5763 5763 5763 5763 5763 5764 5763 5763 5763 5763 5762 5761 5760 5759 5758 5757 5757 5756 5755 5755 5754 5753 5753 5752 5751
5757 5757 5757 5757 5757 5757 5757 5756 5756 5756 5756 5756 5756 5756 5756 5756 5756 5755 5756 5756 5756 5755 5755 5755 5755 5755 5755 5755 5754 5753 5752 5751 5750 5750 5749 5748 5748 5747 5746 5745 5745 5744 5743
5748 5748 5748 5748 5749 5748 5748 5748 5748 5748 5748 5747 5748 5748 5748 5748 5748 5748 5748 5748 5747 5747 5747 5747 5747 5746 5746 5746 5745 5744 5744 5743 5743 5742 5741 5740 5740 5739 5738 5738 5737 5736 5735
5740 5740 5740 5740 5740 5740 5740 5740 5740 5740 5739 5739 5739 5740 5740 5740 5740 5740 5740 5739 5739 5738 5738 5738 5737 5737 5737 5737 5737 5736 5736 5735 5735 5734 5733 5732 5732 5731 5730 5729 5729 5728 5727
5731 5731 5731 5731 5731 5731 5731 5731 5731 5731 5731 5730 5731 5731 5732 5732 5732 5732 5732 5731 5730 5730 5729 5729 5729 5729 5728 5728 5728 5728 5727 5727 5726 5725 5724 5724 5723 5722 5721 5721 5721 5719 5718
5723 5723 5723 5723 5723 5723 5722 5722 5722 5722 5722 5722 5722 5723 5723 5723 5724 5724 5723 5722 5722 5721 5721 5720 5720 5720 5719 5719 5720 5719 5719 5718 5718 5717 5716 5715 5715 5714 5713 5712 5712 5710 5709
5714 5714 5714 5714 5714 5714 5714 5714 5714 5713 5713 5714 5714 5715 5715 5715 5715 5715 5715 5714 5713 5712 5712 5712 5712 5711 5711 5711 5711 5711 5710 5710 5709 5708 5707 5707 5706 5705 5704 5704 5703 5701 5700
5705 5705 5705 5705 5705 5705 5705 5705 5705 5705 5706 5706 5706 5706 5707 5707 5706 5706 5706 5706 5705 5704 5704 5703 5703 5703 5702 5702 5702 5702 5701 5701 5700 5699 5698 5698 5697 5697 5696 5695 5694 5692 5691
5696 5696 5696 5696 5697 5697 5697 5697 5697 5697 5697 5697 5698 5698 5698 5698 5698 5698 5697 5697 5697 5696 5695 5695 5694 5694 5694 5694 5694 5693 5693 5692 5691 5690 5689 5689 5689 5688 5687 5686 5685 5683 5682
5688 5688 5688 5688 5688 5688 5688 5689 5689 5689 5689 5689 5689 5690 5690 5690 5690 5690 5689 5689 5688 5688 5687 5686 5686 5686 5685 5685 5685 5684 5684 5683 5682 5681 5681 5680 5679 5679 5678 5677 5676 5674 5673